Year,Month,Day,Hour,Minute,Value (Times are PST for temperature in C)
2007,12,04,00,00,13.90
2007,12,04,00,01,13.90
2007,12,04,00,02,13.90
2007,12,04,00,03,13.90
2007,12,04,00,04,14.00
2007,12,04,00,05,13.90
2007,12,04,00,06,13.90
2007,12,04,00,07,13.80
2007,12,04,00,08,13.80
2007,12,04,00,09,13.80
2007,12,04,00,10,13.80
2007,12,04,00,11,13.80
2007,12,04,00,12,13.70
2007,12,04,00,13,13.70
2007,12,04,00,14,13.70
2007,12,04,00,15,13.70
2007,12,04,00,16,13.70
2007,12,04,00,17,13.70
2007,12,04,00,18,13.70
2007,12,04,00,19,13.70
2007,12,04,00,20,13.60
2007,12,04,00,21,13.60
2007,12,04,00,22,13.50
2007,12,04,00,23,13.50
2007,12,04,00,24,13.50
2007,12,04,00,25,13.50
2007,12,04,00,26,13.40
2007,12,04,00,27,13.40
2007,12,04,00,28,13.50
2007,12,04,00,29,13.50
2007,12,04,00,30,13.60
2007,12,04,00,31,13.60
2007,12,04,00,32,13.60
2007,12,04,00,33,13.60
2007,12,04,00,34,13.70
2007,12,04,00,35,13.70
2007,12,04,00,36,13.70
2007,12,04,00,37,13.60
2007,12,04,00,38,13.60
2007,12,04,00,39,13.60
2007,12,04,00,40,13.60
2007,12,04,00,41,13.60
2007,12,04,00,42,13.60
2007,12,04,00,43,13.60
2007,12,04,00,44,13.70
2007,12,04,00,45,13.70
2007,12,04,00,46,13.70
2007,12,04,00,47,13.70
2007,12,04,00,48,13.70
2007,12,04,00,49,13.70
2007,12,04,00,50,13.60
2007,12,04,00,51,13.60
2007,12,04,00,52,13.50
2007,12,04,00,53,13.50
2007,12,04,00,54,13.50
2007,12,04,00,55,13.50
2007,12,04,00,56,13.50
2007,12,04,00,57,13.40
2007,12,04,00,58,13.40
2007,12,04,00,59,13.30
2007,12,04,01,00,13.30
2007,12,04,01,01,13.20
2007,12,04,01,02,13.10
2007,12,04,01,03,13.10
2007,12,04,01,04,13.10
2007,12,04,01,05,13.00
2007,12,04,01,06,12.90
2007,12,04,01,07,12.90
2007,12,04,01,08,12.90
2007,12,04,01,09,12.80
2007,12,04,01,10,12.80
2007,12,04,01,11,12.80
2007,12,04,01,12,12.80
2007,12,04,01,13,12.80
2007,12,04,01,14,12.80
2007,12,04,01,15,12.80
2007,12,04,01,16,12.80
2007,12,04,01,17,12.70
2007,12,04,01,18,12.70
2007,12,04,01,19,12.70
2007,12,04,01,20,12.70
2007,12,04,01,21,12.60
2007,12,04,01,22,12.60
2007,12,04,01,23,12.60
2007,12,04,01,24,12.60
2007,12,04,01,25,12.60
2007,12,04,01,26,12.60
2007,12,04,01,27,12.60
2007,12,04,01,28,12.60
2007,12,04,01,29,12.60
2007,12,04,01,30,12.60
2007,12,04,01,31,12.60
2007,12,04,01,32,12.50
2007,12,04,01,33,12.50
2007,12,04,01,34,12.50
2007,12,04,01,35,12.60
2007,12,04,01,36,12.50
2007,12,04,01,37,12.50
2007,12,04,01,38,12.40
2007,12,04,01,39,12.40
2007,12,04,01,40,12.40
2007,12,04,01,41,12.40
2007,12,04,01,42,12.50
2007,12,04,01,43,12.50
2007,12,04,01,44,12.50
2007,12,04,01,45,12.50
2007,12,04,01,46,12.50
2007,12,04,01,47,12.50
2007,12,04,01,48,12.50
2007,12,04,01,49,12.50
2007,12,04,01,50,12.40
2007,12,04,01,51,12.40
2007,12,04,01,52,12.40
2007,12,04,01,53,12.40
2007,12,04,01,54,12.40
2007,12,04,01,55,12.40
2007,12,04,01,56,12.40
2007,12,04,01,57,12.40
2007,12,04,01,58,12.40
2007,12,04,01,59,12.50
2007,12,04,02,00,12.40
2007,12,04,02,01,12.40
2007,12,04,02,02,12.40
2007,12,04,02,03,12.50
2007,12,04,02,04,12.60
2007,12,04,02,05,12.70
2007,12,04,02,06,12.80
2007,12,04,02,07,12.80
2007,12,04,02,08,12.70
2007,12,04,02,09,12.70
2007,12,04,02,10,12.70
2007,12,04,02,11,12.70
2007,12,04,02,12,12.60
2007,12,04,02,13,12.70
2007,12,04,02,14,12.80
2007,12,04,02,15,12.80
2007,12,04,02,16,12.80
2007,12,04,02,17,12.80
2007,12,04,02,18,12.90
2007,12,04,02,19,12.90
2007,12,04,02,20,12.90
2007,12,04,02,21,12.90
2007,12,04,02,22,12.90
2007,12,04,02,23,12.90
2007,12,04,02,24,12.80
2007,12,04,02,25,12.90
2007,12,04,02,26,13.00
2007,12,04,02,27,13.10
2007,12,04,02,28,13.20
2007,12,04,02,29,13.20
2007,12,04,02,30,13.40
2007,12,04,02,31,13.40
2007,12,04,02,32,13.40
2007,12,04,02,33,13.40
2007,12,04,02,34,13.40
2007,12,04,02,35,13.40
2007,12,04,02,36,13.40
2007,12,04,02,37,13.40
2007,12,04,02,38,13.40
2007,12,04,02,39,13.40
2007,12,04,02,40,13.40
2007,12,04,02,41,13.40
2007,12,04,02,42,13.40
2007,12,04,02,43,13.40
2007,12,04,02,44,13.30
2007,12,04,02,45,13.30
2007,12,04,02,46,13.30
2007,12,04,02,47,13.30
2007,12,04,02,48,13.30
2007,12,04,02,49,13.30
2007,12,04,02,50,13.20
2007,12,04,02,51,13.20
2007,12,04,02,52,13.20
2007,12,04,02,53,13.20
2007,12,04,02,54,13.20
2007,12,04,02,55,13.20
2007,12,04,02,56,13.20
2007,12,04,02,57,13.20
2007,12,04,02,58,13.20
2007,12,04,02,59,13.10
2007,12,04,03,00,13.10
2007,12,04,03,01,13.10
2007,12,04,03,02,13.10
2007,12,04,03,03,13.10
2007,12,04,03,04,13.00
2007,12,04,03,05,13.00
2007,12,04,03,06,13.00
2007,12,04,03,07,13.10
2007,12,04,03,08,13.10
2007,12,04,03,09,13.00
2007,12,04,03,10,12.90
2007,12,04,03,11,12.80
2007,12,04,03,12,12.70
2007,12,04,03,13,12.70
2007,12,04,03,14,12.70
2007,12,04,03,15,12.70
2007,12,04,03,16,12.80
2007,12,04,03,17,12.80
2007,12,04,03,18,12.90
2007,12,04,03,19,12.90
2007,12,04,03,20,13.00
2007,12,04,03,21,13.10
2007,12,04,03,22,13.10
2007,12,04,03,23,13.20
2007,12,04,03,24,13.20
2007,12,04,03,25,13.20
2007,12,04,03,26,13.20
2007,12,04,03,27,13.20
2007,12,04,03,28,13.20
2007,12,04,03,29,13.20
2007,12,04,03,30,13.20
2007,12,04,03,31,13.20
2007,12,04,03,32,13.20
2007,12,04,03,33,13.20
2007,12,04,03,34,13.30
2007,12,04,03,35,13.20
2007,12,04,03,36,13.20
2007,12,04,03,37,13.10
2007,12,04,03,38,13.10
2007,12,04,03,39,13.10
2007,12,04,03,40,13.10
2007,12,04,03,41,13.10
2007,12,04,03,42,13.20
2007,12,04,03,43,13.20
2007,12,04,03,44,13.20
2007,12,04,03,45,13.20
2007,12,04,03,46,13.20
2007,12,04,03,47,13.00
2007,12,04,03,48,12.80
2007,12,04,03,49,12.70
2007,12,04,03,50,12.60
2007,12,04,03,51,12.60
2007,12,04,03,52,12.70
2007,12,04,03,53,12.70
2007,12,04,03,54,12.90
2007,12,04,03,55,13.00
2007,12,04,03,56,13.10
2007,12,04,03,57,13.20
2007,12,04,03,58,13.30
2007,12,04,03,59,13.30
2007,12,04,04,00,13.40
2007,12,04,04,01,13.40
2007,12,04,04,02,13.50
2007,12,04,04,03,13.50
2007,12,04,04,04,13.50
2007,12,04,04,05,13.60
2007,12,04,04,06,13.60
2007,12,04,04,07,13.70
2007,12,04,04,08,13.70
2007,12,04,04,09,13.70
2007,12,04,04,10,13.60
2007,12,04,04,11,13.60
2007,12,04,04,12,13.70
2007,12,04,04,13,13.70
2007,12,04,04,14,13.70
2007,12,04,04,15,13.70
2007,12,04,04,16,13.70
2007,12,04,04,17,13.70
2007,12,04,04,18,13.70
2007,12,04,04,19,13.70
2007,12,04,04,20,13.70
2007,12,04,04,21,13.70
2007,12,04,04,22,13.70
2007,12,04,04,23,13.70
2007,12,04,04,24,13.70
2007,12,04,04,25,13.60
2007,12,04,04,26,13.60
2007,12,04,04,27,13.60
2007,12,04,04,28,13.60
2007,12,04,04,29,13.60
2007,12,04,04,30,13.60
2007,12,04,04,31,13.60
2007,12,04,04,32,13.70
2007,12,04,04,33,13.70
2007,12,04,04,34,13.70
2007,12,04,04,35,13.80
2007,12,04,04,36,13.80
2007,12,04,04,37,13.80
2007,12,04,04,38,13.80
2007,12,04,04,39,13.80
2007,12,04,04,40,13.80
2007,12,04,04,41,13.80
2007,12,04,04,42,13.80
2007,12,04,04,43,13.80
2007,12,04,04,44,13.80
2007,12,04,04,45,13.90
2007,12,04,04,46,13.90
2007,12,04,04,47,13.80
2007,12,04,04,48,13.80
2007,12,04,04,49,13.70
2007,12,04,04,50,13.70
2007,12,04,04,51,13.70
2007,12,04,04,52,13.70
2007,12,04,04,53,13.60
2007,12,04,04,54,13.60
2007,12,04,04,55,13.60
2007,12,04,04,56,13.60
2007,12,04,04,57,13.60
2007,12,04,04,58,13.60
2007,12,04,04,59,13.60
2007,12,04,05,00,13.50
2007,12,04,05,01,13.50
2007,12,04,05,02,13.60
2007,12,04,05,03,13.60
2007,12,04,05,04,13.60
2007,12,04,05,05,13.60
2007,12,04,05,06,13.70
2007,12,04,05,07,13.70
2007,12,04,05,08,13.70
2007,12,04,05,09,13.60
2007,12,04,05,10,13.60
2007,12,04,05,11,13.60
2007,12,04,05,12,13.70
2007,12,04,05,13,13.70
2007,12,04,05,14,13.80
2007,12,04,05,15,13.80
2007,12,04,05,16,13.80
2007,12,04,05,17,13.80
2007,12,04,05,18,13.80
2007,12,04,05,19,13.80
2007,12,04,05,20,13.80
2007,12,04,05,21,13.80
2007,12,04,05,22,13.70
2007,12,04,05,23,13.60
2007,12,04,05,24,13.50
2007,12,04,05,25,13.40
2007,12,04,05,26,13.40
2007,12,04,05,27,13.30
2007,12,04,05,28,13.30
2007,12,04,05,29,13.30
2007,12,04,05,30,13.20
2007,12,04,05,31,13.20
2007,12,04,05,32,13.20
2007,12,04,05,33,13.10
2007,12,04,05,34,13.10
2007,12,04,05,35,13.10
2007,12,04,05,36,13.20
2007,12,04,05,37,13.20
2007,12,04,05,38,13.30
2007,12,04,05,39,13.40
2007,12,04,05,40,13.40
2007,12,04,05,41,13.40
2007,12,04,05,42,13.30
2007,12,04,05,43,13.30
2007,12,04,05,44,13.20
2007,12,04,05,45,13.20
2007,12,04,05,46,13.10
2007,12,04,05,47,13.10
2007,12,04,05,48,13.00
2007,12,04,05,49,13.00
2007,12,04,05,50,12.90
2007,12,04,05,51,12.90
2007,12,04,05,52,12.90
2007,12,04,05,53,12.80
2007,12,04,05,54,12.80
2007,12,04,05,55,12.80
2007,12,04,05,56,12.80
2007,12,04,05,57,12.80
2007,12,04,05,58,12.80
2007,12,04,05,59,12.80
2007,12,04,06,00,12.80
2007,12,04,06,01,12.80
2007,12,04,06,02,12.80
2007,12,04,06,03,12.80
2007,12,04,06,04,12.80
2007,12,04,06,05,12.80
2007,12,04,06,06,12.80
2007,12,04,06,07,12.80
2007,12,04,06,08,12.80
2007,12,04,06,09,12.80
2007,12,04,06,10,12.80
2007,12,04,06,11,12.80
2007,12,04,06,12,12.80
2007,12,04,06,13,12.80
2007,12,04,06,14,12.70
2007,12,04,06,15,12.70
2007,12,04,06,16,12.70
2007,12,04,06,17,12.70
2007,12,04,06,18,12.70
2007,12,04,06,19,12.70
2007,12,04,06,20,12.60
2007,12,04,06,21,12.60
2007,12,04,06,22,12.50
2007,12,04,06,23,12.40
2007,12,04,06,24,12.40
2007,12,04,06,25,12.30
2007,12,04,06,26,12.30
2007,12,04,06,27,12.20
2007,12,04,06,28,12.20
2007,12,04,06,29,12.20
2007,12,04,06,30,12.20
2007,12,04,06,31,12.10
2007,12,04,06,32,12.10
2007,12,04,06,33,12.00
2007,12,04,06,34,11.90
2007,12,04,06,35,11.90
2007,12,04,06,36,12.00
2007,12,04,06,37,11.90
2007,12,04,06,38,11.90
2007,12,04,06,39,11.90
2007,12,04,06,40,12.00
2007,12,04,06,41,12.00
2007,12,04,06,42,12.00
2007,12,04,06,43,12.10
2007,12,04,06,44,12.00
2007,12,04,06,45,12.00
2007,12,04,06,46,12.00
2007,12,04,06,47,12.10
2007,12,04,06,48,12.10
2007,12,04,06,49,12.20
2007,12,04,06,50,12.30
2007,12,04,06,51,12.30
2007,12,04,06,52,12.30
2007,12,04,06,53,12.30
2007,12,04,06,54,12.40
2007,12,04,06,55,12.50
2007,12,04,06,56,12.50
2007,12,04,06,57,12.60
2007,12,04,06,58,12.60
2007,12,04,06,59,12.60
2007,12,04,07,00,12.60
2007,12,04,07,01,12.70
2007,12,04,07,02,12.60
2007,12,04,07,03,12.70
2007,12,04,07,04,12.70
2007,12,04,07,05,12.70
2007,12,04,07,06,12.70
2007,12,04,07,07,12.80
2007,12,04,07,08,12.90
2007,12,04,07,09,12.90
2007,12,04,07,10,12.90
2007,12,04,07,11,13.00
2007,12,04,07,12,13.00
2007,12,04,07,13,13.00
2007,12,04,07,14,12.90
2007,12,04,07,15,12.90
2007,12,04,07,16,12.90
2007,12,04,07,17,12.80
2007,12,04,07,18,12.70
2007,12,04,07,19,12.70
2007,12,04,07,20,12.60
2007,12,04,07,21,12.50
2007,12,04,07,22,12.50
2007,12,04,07,23,12.50
2007,12,04,07,24,12.50
2007,12,04,07,25,12.50
2007,12,04,07,26,12.40
2007,12,04,07,27,12.40
2007,12,04,07,28,12.40
2007,12,04,07,29,12.40
2007,12,04,07,30,12.40
2007,12,04,07,31,12.40
2007,12,04,07,32,12.40
2007,12,04,07,33,12.40
2007,12,04,07,34,12.30
2007,12,04,07,35,12.20
2007,12,04,07,36,12.00
2007,12,04,07,37,11.90
2007,12,04,07,38,11.90
2007,12,04,07,39,11.80
2007,12,04,07,40,11.60
2007,12,04,07,41,11.60
2007,12,04,07,42,11.60
2007,12,04,07,43,11.70
2007,12,04,07,44,11.90
2007,12,04,07,45,12.00
2007,12,04,07,46,12.10
2007,12,04,07,47,12.20
2007,12,04,07,48,12.20
2007,12,04,07,49,12.30
2007,12,04,07,50,12.30
2007,12,04,07,51,12.30
2007,12,04,07,52,12.20
2007,12,04,07,53,12.20
2007,12,04,07,54,12.10
2007,12,04,07,55,12.00
2007,12,04,07,56,12.00
2007,12,04,07,57,12.10
2007,12,04,07,58,12.10
2007,12,04,07,59,12.10
2007,12,04,08,00,12.00
2007,12,04,08,01,11.90
2007,12,04,08,02,11.90
2007,12,04,08,03,11.80
2007,12,04,08,04,11.80
2007,12,04,08,05,11.70
2007,12,04,08,06,11.70
2007,12,04,08,07,11.60
2007,12,04,08,08,11.60
2007,12,04,08,09,11.60
2007,12,04,08,10,11.60
2007,12,04,08,11,11.60
2007,12,04,08,12,11.60
2007,12,04,08,13,11.60
2007,12,04,08,14,11.50
2007,12,04,08,15,11.50
2007,12,04,08,16,11.40
2007,12,04,08,17,11.40
2007,12,04,08,18,11.50
2007,12,04,08,19,11.50
2007,12,04,08,20,11.60
2007,12,04,08,21,11.60
2007,12,04,08,22,11.60
2007,12,04,08,23,11.80
2007,12,04,08,24,11.80
2007,12,04,08,25,12.00
2007,12,04,08,26,12.10
2007,12,04,08,27,12.20
2007,12,04,08,28,12.30
2007,12,04,08,29,12.30
2007,12,04,08,30,12.40
2007,12,04,08,31,12.40
2007,12,04,08,32,12.40
2007,12,04,08,33,12.50
2007,12,04,08,34,12.40
2007,12,04,08,35,12.50
2007,12,04,08,36,12.60
2007,12,04,08,37,12.60
2007,12,04,08,38,12.70
2007,12,04,08,39,12.70
2007,12,04,08,40,12.70
2007,12,04,08,41,12.60
2007,12,04,08,42,12.60
2007,12,04,08,43,12.50
2007,12,04,08,44,12.50
2007,12,04,08,45,12.40
2007,12,04,08,46,12.40
2007,12,04,08,47,12.40
2007,12,04,08,48,12.40
2007,12,04,08,49,12.20
2007,12,04,08,50,12.20
2007,12,04,08,51,12.20
2007,12,04,08,52,12.20
2007,12,04,08,53,12.20
2007,12,04,08,54,12.10
2007,12,04,08,55,12.00
2007,12,04,08,56,12.00
2007,12,04,08,57,12.00
2007,12,04,08,58,11.90
2007,12,04,08,59,11.80
2007,12,04,09,00,11.80
2007,12,04,09,01,11.70
2007,12,04,09,02,11.60
2007,12,04,09,03,11.60
2007,12,04,09,04,11.60
2007,12,04,09,05,11.60
2007,12,04,09,06,11.60
2007,12,04,09,07,11.60
2007,12,04,09,08,11.60
2007,12,04,09,09,11.70
2007,12,04,09,10,11.80
2007,12,04,09,11,11.90
2007,12,04,09,12,12.00
2007,12,04,09,13,12.20
2007,12,04,09,14,12.30
2007,12,04,09,15,12.40
2007,12,04,09,16,12.40
2007,12,04,09,17,12.40
2007,12,04,09,18,12.40
2007,12,04,09,19,12.50
2007,12,04,09,20,12.60
2007,12,04,09,21,12.60
2007,12,04,09,22,12.70
2007,12,04,09,23,12.80
2007,12,04,09,24,12.90
2007,12,04,09,25,13.00
2007,12,04,09,26,13.10
2007,12,04,09,27,13.10
2007,12,04,09,28,13.20
2007,12,04,09,29,13.20
2007,12,04,09,30,13.10
2007,12,04,09,31,13.10
2007,12,04,09,32,13.10
2007,12,04,09,33,13.10
2007,12,04,09,34,13.10
2007,12,04,09,35,13.10
2007,12,04,09,36,13.10
2007,12,04,09,37,13.10
2007,12,04,09,38,13.10
2007,12,04,09,39,13.10
2007,12,04,09,40,13.20
2007,12,04,09,41,13.20
2007,12,04,09,42,13.20
2007,12,04,09,43,13.20
2007,12,04,09,44,13.20
2007,12,04,09,45,13.20
2007,12,04,09,46,13.10
2007,12,04,09,47,13.10
2007,12,04,09,48,13.10
2007,12,04,09,49,13.20
2007,12,04,09,54,13.20
2007,12,04,09,55,13.20
2007,12,04,09,56,13.20
2007,12,04,09,57,13.20
2007,12,04,09,58,13.20
2007,12,04,09,59,13.20
2007,12,04,10,00,13.20
2007,12,04,10,01,13.20
2007,12,04,10,02,13.20
2007,12,04,10,03,13.20
2007,12,04,10,04,13.20
2007,12,04,10,05,13.20
2007,12,04,10,06,13.10
2007,12,04,10,07,13.10
2007,12,04,10,08,13.10
2007,12,04,10,09,13.10
2007,12,04,10,10,13.10
2007,12,04,10,11,13.10
2007,12,04,10,12,13.20
2007,12,04,10,13,13.20
2007,12,04,10,14,13.20
2007,12,04,10,15,13.20
2007,12,04,10,16,13.20
2007,12,04,10,17,13.20
2007,12,04,10,18,13.30
2007,12,04,10,19,13.30
2007,12,04,10,20,13.30
2007,12,04,10,21,13.30
2007,12,04,10,22,13.40
2007,12,04,10,23,13.40
2007,12,04,10,24,13.50
2007,12,04,10,25,13.60
2007,12,04,10,26,13.60
2007,12,04,10,27,13.70
2007,12,04,10,28,13.70
2007,12,04,10,29,13.70
2007,12,04,10,30,13.70
2007,12,04,10,31,13.80
2007,12,04,10,32,13.80
2007,12,04,10,33,13.70
2007,12,04,10,34,13.70
2007,12,04,10,35,13.70
2007,12,04,10,36,13.70
2007,12,04,10,37,13.70
2007,12,04,10,38,13.70
2007,12,04,10,39,13.60
2007,12,04,10,40,13.60
2007,12,04,10,41,13.60
2007,12,04,10,42,13.60
2007,12,04,10,43,13.60
2007,12,04,10,44,13.60
2007,12,04,10,45,13.60
2007,12,04,10,46,13.60
2007,12,04,10,47,13.60
2007,12,04,10,48,13.60
2007,12,04,10,49,13.50
2007,12,04,10,50,13.50
2007,12,04,10,51,13.50
2007,12,04,10,52,13.50
2007,12,04,10,53,13.50
2007,12,04,10,54,13.50
2007,12,04,10,55,13.50
2007,12,04,10,56,13.50
2007,12,04,10,57,13.60
2007,12,04,10,58,13.60
2007,12,04,10,59,13.70
2007,12,04,11,00,13.70
2007,12,04,11,01,13.70
2007,12,04,11,02,13.80
2007,12,04,11,03,13.80
2007,12,04,11,04,13.80
2007,12,04,11,05,13.80
2007,12,04,11,06,13.80
2007,12,04,11,07,13.90
2007,12,04,11,08,13.90
2007,12,04,11,09,13.90
2007,12,04,11,10,13.90
2007,12,04,11,11,13.90
2007,12,04,11,12,13.90
2007,12,04,11,13,13.90
2007,12,04,11,14,13.90
2007,12,04,11,15,13.90
2007,12,04,11,16,13.90
2007,12,04,11,17,13.90
2007,12,04,11,18,13.90
2007,12,04,11,19,13.80
2007,12,04,11,20,13.80
2007,12,04,11,21,13.80
2007,12,04,11,22,13.80
2007,12,04,11,23,13.80
2007,12,04,11,24,13.80
2007,12,04,11,25,13.80
2007,12,04,11,26,13.80
2007,12,04,11,27,13.80
2007,12,04,11,28,13.80
2007,12,04,11,29,13.80
2007,12,04,11,30,13.80
2007,12,04,11,31,13.80
2007,12,04,11,32,13.80
2007,12,04,11,33,13.80
2007,12,04,11,34,13.80
2007,12,04,11,35,13.80
2007,12,04,11,36,13.80
2007,12,04,11,37,13.80
2007,12,04,11,38,13.80
2007,12,04,11,39,13.80
2007,12,04,11,40,13.80
2007,12,04,11,41,13.80
2007,12,04,11,42,13.80
2007,12,04,11,43,13.80
2007,12,04,11,44,13.80
2007,12,04,11,45,13.70
2007,12,04,11,46,13.70
2007,12,04,11,47,13.70
2007,12,04,11,48,13.70
2007,12,04,11,49,13.70
2007,12,04,11,50,13.70
2007,12,04,11,51,13.70
2007,12,04,11,52,13.80
2007,12,04,11,53,13.80
2007,12,04,11,54,13.80
2007,12,04,11,55,13.80
2007,12,04,11,56,13.80
2007,12,04,11,57,13.80
2007,12,04,11,58,13.80
2007,12,04,11,59,13.80
2007,12,04,12,00,13.80
2007,12,04,12,01,13.80
2007,12,04,12,02,13.70
2007,12,04,12,03,13.70
2007,12,04,12,04,13.70
2007,12,04,12,05,13.70
2007,12,04,12,06,13.70
2007,12,04,12,07,13.70
2007,12,04,12,08,13.70
2007,12,04,12,09,13.70
2007,12,04,12,10,13.70
2007,12,04,12,11,13.70
2007,12,04,12,12,13.70
2007,12,04,12,13,13.70
2007,12,04,12,14,13.60
2007,12,04,12,15,13.60
2007,12,04,12,16,13.60
2007,12,04,12,17,13.60
2007,12,04,12,18,13.60
2007,12,04,12,19,13.60
2007,12,04,12,20,13.50
2007,12,04,12,21,13.40
2007,12,04,12,22,13.40
2007,12,04,12,23,13.30
2007,12,04,12,24,13.30
2007,12,04,12,25,13.30
2007,12,04,12,26,13.20
2007,12,04,12,27,13.20
2007,12,04,12,28,13.20
2007,12,04,12,29,13.10
2007,12,04,12,30,13.10
2007,12,04,12,31,13.10
2007,12,04,12,32,13.10
2007,12,04,12,33,13.10
2007,12,04,12,34,13.10
2007,12,04,12,35,13.20
2007,12,04,12,36,13.20
2007,12,04,12,37,13.20
2007,12,04,12,38,13.20
2007,12,04,12,39,13.20
2007,12,04,12,40,13.20
2007,12,04,12,41,13.20
2007,12,04,12,42,13.30
2007,12,04,12,43,13.30
2007,12,04,12,44,13.30
2007,12,04,12,45,13.30
2007,12,04,12,46,13.30
2007,12,04,12,47,13.30
2007,12,04,12,48,13.30
2007,12,04,12,49,13.30
2007,12,04,12,50,13.30
2007,12,04,12,51,13.30
2007,12,04,12,52,13.30
2007,12,04,12,53,13.30
2007,12,04,12,54,13.30
2007,12,04,12,55,13.30
2007,12,04,12,56,13.30
2007,12,04,12,57,13.20
2007,12,04,12,58,13.20
2007,12,04,12,59,13.20
2007,12,04,13,00,13.20
2007,12,04,13,01,13.20
2007,12,04,13,02,13.20
2007,12,04,13,03,13.20
2007,12,04,13,04,13.20
2007,12,04,13,05,13.20
2007,12,04,13,06,13.20
2007,12,04,13,07,13.20
2007,12,04,13,08,13.10
2007,12,04,13,09,13.10
2007,12,04,13,10,13.10
2007,12,04,13,11,13.10
2007,12,04,13,12,13.10
2007,12,04,13,13,13.10
2007,12,04,13,14,13.00
2007,12,04,13,15,12.90
2007,12,04,13,16,12.90
2007,12,04,13,17,12.90
2007,12,04,13,18,12.90
2007,12,04,13,19,12.80
2007,12,04,13,20,12.80
2007,12,04,13,21,12.80
2007,12,04,13,22,12.70
2007,12,04,13,23,12.70
2007,12,04,13,24,12.70
2007,12,04,13,25,12.70
2007,12,04,13,26,12.60
2007,12,04,13,27,12.60
2007,12,04,13,28,12.60
2007,12,04,13,29,12.60
2007,12,04,13,30,12.60
2007,12,04,13,31,12.60
2007,12,04,13,32,12.60
2007,12,04,13,33,12.60
2007,12,04,13,34,12.60
2007,12,04,13,35,12.60
2007,12,04,13,36,12.60
2007,12,04,13,37,12.60
2007,12,04,13,38,12.60
2007,12,04,13,39,12.60
2007,12,04,13,40,12.60
2007,12,04,13,41,12.60
2007,12,04,13,42,12.60
2007,12,04,13,43,12.50
2007,12,04,13,44,12.50
2007,12,04,13,45,12.50
2007,12,04,13,46,12.50
2007,12,04,13,47,12.50
2007,12,04,13,48,12.50
2007,12,04,13,49,12.40
2007,12,04,13,50,12.40
2007,12,04,13,51,12.40
2007,12,04,13,52,12.40
2007,12,04,13,53,12.40
2007,12,04,13,54,12.40
2007,12,04,13,55,12.40
2007,12,04,13,56,12.40
2007,12,04,13,57,12.40
2007,12,04,13,58,12.40
2007,12,04,13,59,12.40
2007,12,04,14,00,12.30
2007,12,04,14,01,12.30
2007,12,04,14,02,12.30
2007,12,04,14,03,12.30
2007,12,04,14,04,12.30
2007,12,04,14,05,12.30
2007,12,04,14,06,12.30
2007,12,04,14,07,12.30
2007,12,04,14,08,12.30
2007,12,04,14,09,12.20
2007,12,04,14,10,12.20
2007,12,04,14,11,12.10
2007,12,04,14,12,12.10
2007,12,04,14,13,12.20
2007,12,04,14,14,12.10
2007,12,04,14,15,12.10
2007,12,04,14,16,12.10
2007,12,04,14,17,12.10
2007,12,04,14,18,12.10
2007,12,04,14,19,12.10
2007,12,04,14,20,12.10
2007,12,04,14,21,12.00
2007,12,04,14,22,12.00
2007,12,04,14,23,12.00
2007,12,04,14,24,12.00
2007,12,04,14,25,12.00
2007,12,04,14,26,12.00
2007,12,04,14,27,11.90
2007,12,04,14,28,11.90
2007,12,04,14,29,12.00
2007,12,04,14,30,12.00
2007,12,04,14,31,12.10
2007,12,04,14,32,12.10
2007,12,04,14,33,12.10
2007,12,04,14,34,12.10
2007,12,04,14,35,12.00
2007,12,04,14,36,12.00
2007,12,04,14,37,12.00
2007,12,04,14,38,11.90
2007,12,04,14,39,11.90
2007,12,04,14,40,11.90
2007,12,04,14,41,11.90
2007,12,04,14,42,11.90
2007,12,04,14,43,11.90
2007,12,04,14,44,11.90
2007,12,04,14,45,11.90
2007,12,04,14,46,11.90
2007,12,04,14,47,11.90
2007,12,04,14,48,11.90
2007,12,04,14,49,12.00
2007,12,04,14,50,12.00
2007,12,04,14,51,12.00
2007,12,04,14,52,12.10
2007,12,04,14,53,12.10
2007,12,04,14,54,12.10
2007,12,04,14,55,12.10
2007,12,04,14,56,12.10
2007,12,04,14,57,12.10
2007,12,04,14,58,12.10
2007,12,04,14,59,12.10
2007,12,04,15,00,12.10
2007,12,04,15,01,12.10
2007,12,04,15,02,12.10
2007,12,04,15,03,12.10
2007,12,04,15,04,12.10
2007,12,04,15,05,12.10
2007,12,04,15,06,12.10
2007,12,04,15,07,12.10
2007,12,04,15,08,12.10
2007,12,04,15,09,12.20
2007,12,04,15,10,12.20
2007,12,04,15,11,12.20
2007,12,04,15,12,12.20
2007,12,04,15,13,12.20
2007,12,04,15,14,12.20
2007,12,04,15,15,12.20
2007,12,04,15,16,12.20
2007,12,04,15,17,12.20
2007,12,04,15,18,12.20
2007,12,04,15,19,12.20
2007,12,04,15,20,12.20
2007,12,04,15,21,12.20
2007,12,04,15,22,12.10
2007,12,04,15,23,12.10
2007,12,04,15,24,12.10
2007,12,04,15,25,12.10
2007,12,04,15,26,12.10
2007,12,04,15,27,12.10
2007,12,04,15,28,12.10
2007,12,04,15,29,12.10
2007,12,04,15,30,12.00
2007,12,04,15,31,12.00
2007,12,04,15,32,12.10
2007,12,04,15,33,12.00
2007,12,04,15,34,12.00
2007,12,04,15,35,12.00
2007,12,04,15,36,12.00
2007,12,04,15,37,12.00
2007,12,04,15,38,12.00
2007,12,04,15,39,12.00
2007,12,04,15,40,12.00
2007,12,04,15,41,12.10
2007,12,04,15,42,12.00
2007,12,04,15,43,11.90
2007,12,04,15,44,11.90
2007,12,04,15,45,11.90
2007,12,04,15,46,11.90
2007,12,04,15,47,11.90
2007,12,04,15,48,11.90
2007,12,04,15,49,11.90
2007,12,04,15,50,11.90
2007,12,04,15,51,11.90
2007,12,04,15,52,11.90
2007,12,04,15,53,11.90
2007,12,04,15,54,11.90
2007,12,04,15,55,11.90
2007,12,04,15,56,11.80
2007,12,04,15,57,11.80
2007,12,04,15,58,11.80
2007,12,04,15,59,11.80
2007,12,04,16,00,11.80
2007,12,04,16,01,11.80
2007,12,04,16,02,11.80
2007,12,04,16,03,11.80
2007,12,04,16,04,11.80
2007,12,04,16,05,11.80
2007,12,04,16,06,11.80
2007,12,04,16,07,11.80
2007,12,04,16,08,11.80
2007,12,04,16,09,11.80
2007,12,04,16,10,11.70
2007,12,04,16,11,11.70
2007,12,04,16,12,11.70
2007,12,04,16,13,11.70
2007,12,04,16,14,11.70
2007,12,04,16,15,11.70
2007,12,04,16,16,11.70
2007,12,04,16,17,11.70
2007,12,04,16,18,11.70
2007,12,04,16,19,11.70
2007,12,04,16,20,11.60
2007,12,04,16,21,11.60
2007,12,04,16,22,11.60
2007,12,04,16,23,11.60
2007,12,04,16,24,11.50
2007,12,04,16,25,11.50
2007,12,04,16,26,11.50
2007,12,04,16,27,11.50
2007,12,04,16,28,11.50
2007,12,04,16,29,11.50
2007,12,04,16,30,11.50
2007,12,04,16,31,11.50
2007,12,04,16,32,11.50
2007,12,04,16,33,11.50
2007,12,04,16,34,11.50
2007,12,04,16,35,11.50
2007,12,04,16,36,11.40
2007,12,04,16,37,11.40
2007,12,04,16,38,11.40
2007,12,04,16,39,11.40
2007,12,04,16,40,11.40
2007,12,04,16,41,11.30
2007,12,04,16,42,11.30
2007,12,04,16,43,11.30
2007,12,04,16,44,11.30
2007,12,04,16,45,11.30
2007,12,04,16,46,11.30
2007,12,04,16,47,11.30
2007,12,04,16,48,11.20
2007,12,04,16,49,11.20
2007,12,04,16,50,11.20
2007,12,04,16,51,11.10
2007,12,04,16,52,11.10
2007,12,04,16,53,11.10
2007,12,04,16,54,11.10
2007,12,04,16,55,11.10
2007,12,04,16,56,11.00
2007,12,04,16,57,11.00
2007,12,04,16,58,11.00
2007,12,04,16,59,11.00
2007,12,04,17,00,11.00
2007,12,04,17,01,10.90
2007,12,04,17,02,10.80
2007,12,04,17,03,10.80
2007,12,04,17,04,10.80
2007,12,04,17,05,10.70
2007,12,04,17,06,10.70
2007,12,04,17,07,10.60
2007,12,04,17,08,10.60
2007,12,04,17,09,10.50
2007,12,04,17,10,10.40
2007,12,04,17,11,10.30
2007,12,04,17,12,10.20
2007,12,04,17,13,10.20
2007,12,04,17,14,10.20
2007,12,04,17,15,10.20
2007,12,04,17,16,10.20
2007,12,04,17,17,10.20
2007,12,04,17,18,10.20
2007,12,04,17,19,10.20
2007,12,04,17,20,10.20
2007,12,04,17,21,10.20
2007,12,04,17,22,10.20
2007,12,04,17,23,10.30